Location: Newark
(41.6500°N, 71.4833°W)
Time: 14:09:51
(UTC+00:00)

A-11 Canister half - Pass Details

Date: 20 January 2020
Orbit: 1517 x 1683 km, 47.2° (Epoch: 22 February)

Event Time Altitude Azimuth Distance (km) Brightness Sun altitude
Rises 12:47:32 0° 296° (WNW) 4,670 10.9 5.5°
Reaches altitude 10° 12:50:47 10° 289° (WNW) 3,694 10.4 6.1°
Maximum altitude 12:59:08 39° 225° (SW) 2,179 9.9 7.3°
Drops below altitude 10° 13:07:40 10° 161° (SSE) 3,774 12.2 8.6°
Sets 13:11:04 0° 154° (SSE) 4,781 12.9 9.1°
